TimeCST,TemperatureF,Dew PointF,Humidity,Sea Level PressureIn,VisibilityMPH,Wind Direction,Wind SpeedMPH,Gust SpeedMPH,PrecipitationIn,Events,Conditions,WindDirDegrees,DateUTC
4:53 AM,61.0,60.1,97,29.91,10.0,South,9.2,-,N/A,,Overcast,190,2012-12-09 10:53:00
5:53 AM,62.1,59.0,90,29.93,10.0,South,11.5,-,N/A,,Mostly Cloudy,190,2012-12-09 11:53:00
6:53 AM,61.0,59.0,93,29.93,10.0,South,10.4,-,N/A,,Mostly Cloudy,190,2012-12-09 12:53:00
8:51 AM,64.4,60.8,88,29.93,10.0,South,12.7,-,N/A,,Mostly Cloudy,190,2012-12-09 14:51:00
8:53 AM,64.0,60.1,87,29.95,10.0,South,13.8,-,N/A,,Mostly Cloudy,190,2012-12-09 14:53:00
9:02 AM,64.4,60.8,88,29.93,10.0,South,12.7,-,N/A,,Mostly Cloudy,190,2012-12-09 15:02:00
9:53 AM,69.1,64.0,84,29.94,10.0,SSW,15.0,-,N/A,,Mostly Cloudy,200,2012-12-09 15:53:00
10:25 AM,69.8,64.4,83,29.92,10.0,SSW,12.7,20.7,N/A,,Mostly Cloudy,200,2012-12-09 16:25:00
10:49 AM,71.6,64.4,78,29.91,10.0,South,19.6,25.3,N/A,,Mostly Cloudy,190,2012-12-09 16:49:00
10:53 AM,71.1,66.0,84,29.93,10.0,South,18.4,-,N/A,,Mostly Cloudy,180,2012-12-09 16:53:00
11:53 AM,72.0,64.9,78,29.90,10.0,SSW,20.7,-,N/A,,Overcast,200,2012-12-09 17:53:00
12:25 PM,71.6,64.4,78,29.87,10.0,SSW,17.3,-,N/A,,Overcast,200,2012-12-09 18:25:00
12:53 PM,70.0,64.9,84,29.88,10.0,SSW,17.3,-,N/A,,Overcast,210,2012-12-09 18:53:00
1:46 PM,69.8,64.4,83,29.85,10.0,SSW,16.1,26.5,N/A,,Overcast,210,2012-12-09 19:46:00
1:53 PM,71.1,64.9,81,29.87,10.0,SSW,16.1,24.2,N/A,,Overcast,210,2012-12-09 19:53:00
2:51 PM,71.6,66.2,83,29.83,10.0,South,16.1,-,N/A,,Scattered Clouds,190,2012-12-09 20:51:00
2:53 PM,72.0,66.0,81,29.85,10.0,South,15.0,-,N/A,,Scattered Clouds,190,2012-12-09 20:53:00
3:53 PM,71.6,66.2,83,29.83,10.0,South,10.4,-,N/A,,Scattered Clouds,180,2012-12-09 21:53:00
4:53 PM,69.1,64.9,87,29.85,10.0,South,9.2,-,N/A,,Clear,190,2012-12-09 22:53:00
5:53 PM,68.0,64.9,90,29.83,10.0,South,10.4,-,N/A,,Clear,170,2012-12-09 23:53:00
7:53 PM,68.0,64.9,90,29.82,10.0,SSE,8.1,-,N/A,,Clear,160,2012-12-10 01:53:00
8:53 PM,68.0,64.9,90,29.81,10.0,South,6.9,-,N/A,,Clear,180,2012-12-10 02:53:00
10:36 PM,68.0,64.4,88,29.78,8.0,SSW,8.1,-,0.01,Rain-Thunderstorm,Light Rain,200,2012-12-10 04:36:00
10:53 PM,68.0,64.9,90,29.82,5.0,South,29.9,35.7,0.04,Rain-Thunderstorm,Thunderstorms and Rain,180,2012-12-10 04:53:00
11:28 PM,62.6,60.8,94,29.82,4.0,SW,17.3,26.5,0.10,Rain-Thunderstorm,Thunderstorms and Rain,220,2012-12-10 05:28:00
11:53 PM,63.0,60.1,90,29.83,5.0,SW,10.4,-,0.20,Rain-Thunderstorm,Thunderstorms and Rain,220,2012-12-10 05:53:00